Year,Month,Day,Hour,Minute,Value (Times are PST for temperature in C)
2019,05,24,00,00,13.40
2019,05,24,00,01,13.40
2019,05,24,00,02,13.40
2019,05,24,00,03,13.30
2019,05,24,00,04,13.30
2019,05,24,00,05,13.30
2019,05,24,00,06,13.30
2019,05,24,00,07,13.30
2019,05,24,00,08,13.30
2019,05,24,00,09,13.30
2019,05,24,00,10,13.30
2019,05,24,00,11,13.30
2019,05,24,00,12,13.30
2019,05,24,00,13,13.30
2019,05,24,00,14,13.20
2019,05,24,00,15,13.20
2019,05,24,00,16,13.20
2019,05,24,00,17,13.20
2019,05,24,00,18,13.20
2019,05,24,00,19,13.10
2019,05,24,00,20,13.10
2019,05,24,00,21,13.10
2019,05,24,00,22,13.10
2019,05,24,00,23,13.10
2019,05,24,00,24,13.00
2019,05,24,00,25,13.00
2019,05,24,00,26,13.00
2019,05,24,00,27,12.90
2019,05,24,00,28,12.90
2019,05,24,00,29,12.90
2019,05,24,00,30,12.90
2019,05,24,00,31,12.80
2019,05,24,00,32,12.80
2019,05,24,00,33,12.80
2019,05,24,00,34,12.70
2019,05,24,00,35,12.70
2019,05,24,00,36,12.70
2019,05,24,00,37,12.70
2019,05,24,00,38,12.60
2019,05,24,00,39,12.60
2019,05,24,00,40,12.50
2019,05,24,00,41,12.50
2019,05,24,00,42,12.40
2019,05,24,00,43,12.40
2019,05,24,00,44,12.40
2019,05,24,00,45,12.30
2019,05,24,00,46,12.30
2019,05,24,00,47,12.30
2019,05,24,00,48,12.30
2019,05,24,00,49,12.30
2019,05,24,00,50,12.20
2019,05,24,00,51,12.20
2019,05,24,00,52,12.20
2019,05,24,00,53,12.20
2019,05,24,00,54,12.20
2019,05,24,00,55,12.10
2019,05,24,00,56,12.10
2019,05,24,00,57,12.10
2019,05,24,00,58,12.10
2019,05,24,00,59,12.10
2019,05,24,01,00,12.10
2019,05,24,01,01,12.00
2019,05,24,01,02,12.00
2019,05,24,01,03,12.00
2019,05,24,01,04,12.00
2019,05,24,01,05,11.90
2019,05,24,01,06,11.90
2019,05,24,01,07,11.90
2019,05,24,01,08,11.90
2019,05,24,01,09,11.90
2019,05,24,01,10,11.90
2019,05,24,01,11,11.90
2019,05,24,01,12,11.90
2019,05,24,01,13,11.90
2019,05,24,01,14,11.90
2019,05,24,01,15,11.90
2019,05,24,01,16,11.90
2019,05,24,01,17,11.90
2019,05,24,01,18,11.90
2019,05,24,01,19,11.90
2019,05,24,01,20,11.80
2019,05,24,01,21,11.80
2019,05,24,01,22,11.80
2019,05,24,01,23,11.80
2019,05,24,01,24,11.70
2019,05,24,01,25,11.70
2019,05,24,01,26,11.70
2019,05,24,01,27,11.70
2019,05,24,01,28,11.70
2019,05,24,01,29,11.70
2019,05,24,01,30,11.70
2019,05,24,01,31,11.70
2019,05,24,01,32,11.60
2019,05,24,01,33,11.60
2019,05,24,01,34,11.60
2019,05,24,01,35,11.60
2019,05,24,01,36,11.60
2019,05,24,01,37,11.50
2019,05,24,01,38,11.50
2019,05,24,01,39,11.40
2019,05,24,01,40,11.40
2019,05,24,01,41,11.40
2019,05,24,01,42,11.30
2019,05,24,01,43,11.30
2019,05,24,01,44,11.20
2019,05,24,01,45,11.20
2019,05,24,01,46,11.10
2019,05,24,01,47,11.00
2019,05,24,01,48,11.00
2019,05,24,01,49,10.90
2019,05,24,01,50,10.90
2019,05,24,01,51,10.80
2019,05,24,01,52,10.80
2019,05,24,01,53,10.70
2019,05,24,01,54,10.70
2019,05,24,01,55,10.70
2019,05,24,01,56,10.70
2019,05,24,01,57,10.60
2019,05,24,01,58,10.60
2019,05,24,01,59,10.60
2019,05,24,02,00,10.60
2019,05,24,02,01,10.60
2019,05,24,02,02,10.50
2019,05,24,02,03,10.50
2019,05,24,02,04,10.50
2019,05,24,02,05,10.50
2019,05,24,02,06,10.50
2019,05,24,02,07,10.50
2019,05,24,02,08,10.50
2019,05,24,02,09,10.50
2019,05,24,02,10,10.50
2019,05,24,02,11,10.50
2019,05,24,02,12,10.50
2019,05,24,02,13,10.40
2019,05,24,02,14,10.40
2019,05,24,02,15,10.40
2019,05,24,02,16,10.40
2019,05,24,02,17,10.40
2019,05,24,02,18,10.40
2019,05,24,02,19,10.40
2019,05,24,02,20,10.40
2019,05,24,02,21,10.40
2019,05,24,02,22,10.40
2019,05,24,02,23,10.40
2019,05,24,02,24,10.40
2019,05,24,02,25,10.40
2019,05,24,02,26,10.30
2019,05,24,02,27,10.40
2019,05,24,02,28,10.30
2019,05,24,02,29,10.40
2019,05,24,02,30,10.40
2019,05,24,02,31,10.40
2019,05,24,02,32,10.40
2019,05,24,02,33,10.40
2019,05,24,02,34,10.40
2019,05,24,02,35,10.40
2019,05,24,02,36,10.40
2019,05,24,02,37,10.50
2019,05,24,02,38,10.40
2019,05,24,02,39,10.40
2019,05,24,02,40,10.40
2019,05,24,02,41,10.40
2019,05,24,02,42,10.40
2019,05,24,02,43,10.40
2019,05,24,02,44,10.40
2019,05,24,02,45,10.40
2019,05,24,02,46,10.40
2019,05,24,02,47,10.40
2019,05,24,02,48,10.40
2019,05,24,02,49,10.40
2019,05,24,02,50,10.40
2019,05,24,02,51,10.40
2019,05,24,02,52,10.40
2019,05,24,02,53,10.40
2019,05,24,02,54,10.40
2019,05,24,02,55,10.40
2019,05,24,02,56,10.40
2019,05,24,02,57,10.40
2019,05,24,02,58,10.30
2019,05,24,02,59,10.30
2019,05,24,03,00,10.30
2019,05,24,03,01,10.30
2019,05,24,03,02,10.30
2019,05,24,03,03,10.30
2019,05,24,03,04,10.30
2019,05,24,03,05,10.30
2019,05,24,03,06,10.30
2019,05,24,03,07,10.30
2019,05,24,03,08,10.30
2019,05,24,03,09,10.30
2019,05,24,03,10,10.30
2019,05,24,03,11,10.30
2019,05,24,03,12,10.30
2019,05,24,03,13,10.30
2019,05,24,03,14,10.30
2019,05,24,03,15,10.40
2019,05,24,03,16,10.40
2019,05,24,03,17,10.40
2019,05,24,03,18,10.40
2019,05,24,03,19,10.40
2019,05,24,03,20,10.40
2019,05,24,03,21,10.40
2019,05,24,03,22,10.40
2019,05,24,03,23,10.40
2019,05,24,03,24,10.40
2019,05,24,03,25,10.40
2019,05,24,03,26,10.40
2019,05,24,03,27,10.40
2019,05,24,03,28,10.40
2019,05,24,03,29,10.40
2019,05,24,03,30,10.40
2019,05,24,03,31,10.40
2019,05,24,03,32,10.40
2019,05,24,03,33,10.40
2019,05,24,03,34,10.40
2019,05,24,03,35,10.40
2019,05,24,03,36,10.40
2019,05,24,03,37,10.40
2019,05,24,03,38,10.40
2019,05,24,03,39,10.40
2019,05,24,03,40,10.40
2019,05,24,03,41,10.40
2019,05,24,03,42,10.40
2019,05,24,03,43,10.40
2019,05,24,03,44,10.40
2019,05,24,03,45,10.40
2019,05,24,03,46,10.40
2019,05,24,03,47,10.40
2019,05,24,03,48,10.40
2019,05,24,03,49,10.40
2019,05,24,03,50,10.40
2019,05,24,03,51,10.40
2019,05,24,03,52,10.40
2019,05,24,03,53,10.30
2019,05,24,03,54,10.30
2019,05,24,03,55,10.30
2019,05,24,03,56,10.30
2019,05,24,03,57,10.30
2019,05,24,03,58,10.30
2019,05,24,03,59,10.30
2019,05,24,04,00,10.30
2019,05,24,04,01,10.30
2019,05,24,04,02,10.30
2019,05,24,04,03,10.30
2019,05,24,04,04,10.30
2019,05,24,04,05,10.30
2019,05,24,04,06,10.30
2019,05,24,04,07,10.30
2019,05,24,04,08,10.30
2019,05,24,04,09,10.30
2019,05,24,04,10,10.30
2019,05,24,04,11,10.30
2019,05,24,04,12,10.30
2019,05,24,04,13,10.30
2019,05,24,04,14,10.30
2019,05,24,04,15,10.30
2019,05,24,04,16,10.30
2019,05,24,04,17,10.30
2019,05,24,04,18,10.30
2019,05,24,04,19,10.30
2019,05,24,04,20,10.30
2019,05,24,04,21,10.30
2019,05,24,04,22,10.30
2019,05,24,04,23,10.30
2019,05,24,04,24,10.30
2019,05,24,04,25,10.30
2019,05,24,04,26,10.30
2019,05,24,04,27,10.30
2019,05,24,04,28,10.30
2019,05,24,04,29,10.30
2019,05,24,04,30,10.30
2019,05,24,04,31,10.30
2019,05,24,04,32,10.40
2019,05,24,04,33,10.40
2019,05,24,04,34,10.40
2019,05,24,04,35,10.50
2019,05,24,04,36,10.50
2019,05,24,04,37,10.50
2019,05,24,04,38,10.40
2019,05,24,04,39,10.40
2019,05,24,04,40,10.40
2019,05,24,04,41,10.40
2019,05,24,04,42,10.40
2019,05,24,04,43,10.40
2019,05,24,04,44,10.40
2019,05,24,04,45,10.40
2019,05,24,04,46,10.40
2019,05,24,04,47,10.40
2019,05,24,04,48,10.40
2019,05,24,04,49,10.40
2019,05,24,04,50,10.40
2019,05,24,04,51,10.40
2019,05,24,04,52,10.40
2019,05,24,04,53,10.30
2019,05,24,04,54,10.30
2019,05,24,04,55,10.30
2019,05,24,04,56,10.30
2019,05,24,04,57,10.30
2019,05,24,04,58,10.20
2019,05,24,04,59,10.20
2019,05,24,05,00,10.20
2019,05,24,05,01,10.20
2019,05,24,05,02,10.20
2019,05,24,05,03,10.20
2019,05,24,05,04,10.20
2019,05,24,05,05,10.20
2019,05,24,05,06,10.20
2019,05,24,05,07,10.20
2019,05,24,05,08,10.10
2019,05,24,05,09,10.10
2019,05,24,05,10,10.10
2019,05,24,05,11,10.10
2019,05,24,05,12,10.10
2019,05,24,05,13,10.10
2019,05,24,05,14,10.10
2019,05,24,05,15,10.10
2019,05,24,05,16,10.10
2019,05,24,05,17,10.10
2019,05,24,05,18,10.10
2019,05,24,05,19,10.10
2019,05,24,05,20,10.10
2019,05,24,05,21,10.10
2019,05,24,05,22,10.00
2019,05,24,05,23,10.00
2019,05,24,05,24,10.00
2019,05,24,05,25,10.00
2019,05,24,05,26,10.00
2019,05,24,05,27,10.00
2019,05,24,05,28,10.00
2019,05,24,05,29,10.00
2019,05,24,05,30,10.00
2019,05,24,05,31,10.00
2019,05,24,05,32,10.00
2019,05,24,05,33,10.00
2019,05,24,05,34,9.90
2019,05,24,05,35,9.90
2019,05,24,05,36,9.90
2019,05,24,05,37,9.90
2019,05,24,05,38,9.90
2019,05,24,05,39,9.90
2019,05,24,05,40,9.80
2019,05,24,05,41,9.80
2019,05,24,05,42,9.80
2019,05,24,05,43,9.80
2019,05,24,05,44,9.80
2019,05,24,05,45,9.70
2019,05,24,05,46,9.70
2019,05,24,05,47,9.70
2019,05,24,05,48,9.60
2019,05,24,05,49,9.60
2019,05,24,05,50,9.60
2019,05,24,05,51,9.60
2019,05,24,05,52,9.60
2019,05,24,05,53,9.60
2019,05,24,05,54,9.60
2019,05,24,05,55,9.60
2019,05,24,05,56,9.60
2019,05,24,05,57,9.60
2019,05,24,05,58,9.50
2019,05,24,05,59,9.50
2019,05,24,06,00,9.50
2019,05,24,06,01,9.40
2019,05,24,06,02,9.40
2019,05,24,06,03,9.30
2019,05,24,06,04,9.30
2019,05,24,06,05,9.30
2019,05,24,06,06,9.30
2019,05,24,06,07,9.20
2019,05,24,06,08,9.20
2019,05,24,06,09,9.20
2019,05,24,06,10,9.20
2019,05,24,06,11,9.20
2019,05,24,06,12,9.20
2019,05,24,06,13,9.10
2019,05,24,06,14,9.10
2019,05,24,06,15,9.10
2019,05,24,06,16,9.10
2019,05,24,06,17,9.10
2019,05,24,06,18,9.00
2019,05,24,06,19,9.00
2019,05,24,06,20,9.00
2019,05,24,06,21,9.00
2019,05,24,06,22,8.90
2019,05,24,06,23,8.90
2019,05,24,06,24,9.00
2019,05,24,06,25,8.90
2019,05,24,06,26,8.90
2019,05,24,06,27,8.90
2019,05,24,06,28,8.90
2019,05,24,06,29,8.90
2019,05,24,06,30,8.90
2019,05,24,06,31,8.90
2019,05,24,06,32,8.90
2019,05,24,06,33,8.90
2019,05,24,06,34,8.90
2019,05,24,06,35,8.90
2019,05,24,06,36,8.90
2019,05,24,06,37,8.90
2019,05,24,06,38,8.90
2019,05,24,06,39,8.90
2019,05,24,06,40,8.90
2019,05,24,06,41,8.90
2019,05,24,06,42,8.90
2019,05,24,06,43,8.90
2019,05,24,06,44,8.90
2019,05,24,06,45,8.90
2019,05,24,06,46,8.90
2019,05,24,06,47,8.90
2019,05,24,06,48,8.90
2019,05,24,06,49,8.90
2019,05,24,06,50,8.90
2019,05,24,06,51,8.90
2019,05,24,06,52,8.90
2019,05,24,06,53,8.90
2019,05,24,06,54,8.90
2019,05,24,06,55,8.90
2019,05,24,06,56,8.90
2019,05,24,06,57,8.90
2019,05,24,06,58,8.90
2019,05,24,06,59,8.90
2019,05,24,07,00,8.90
2019,05,24,07,01,8.90
2019,05,24,07,02,8.90
2019,05,24,07,03,8.90
2019,05,24,07,04,8.90
2019,05,24,07,05,8.90
2019,05,24,07,06,8.90
2019,05,24,07,07,8.90
2019,05,24,07,08,8.90
2019,05,24,07,09,9.00
2019,05,24,07,10,9.00
2019,05,24,07,11,9.00
2019,05,24,07,12,9.00
2019,05,24,07,13,9.00
2019,05,24,07,14,9.10
2019,05,24,07,15,9.10
2019,05,24,07,16,9.10
2019,05,24,07,17,9.10
2019,05,24,07,18,9.20
2019,05,24,07,19,9.20
2019,05,24,07,20,9.20
2019,05,24,07,21,9.30
2019,05,24,07,22,9.30
2019,05,24,07,23,9.30
2019,05,24,07,24,9.40
2019,05,24,07,25,9.40
2019,05,24,07,26,9.50
2019,05,24,07,27,9.50
2019,05,24,07,28,9.60
2019,05,24,07,29,9.60
2019,05,24,07,30,9.60
2019,05,24,07,31,9.70
2019,05,24,07,32,9.70
2019,05,24,07,33,9.70
2019,05,24,07,34,9.70
2019,05,24,07,35,9.70
2019,05,24,07,36,9.70
2019,05,24,07,37,9.70
2019,05,24,07,38,9.70
2019,05,24,07,39,9.70
2019,05,24,07,40,9.70
2019,05,24,07,41,9.70
2019,05,24,07,42,9.70
2019,05,24,07,43,9.70
2019,05,24,07,44,9.70
2019,05,24,07,45,9.70
2019,05,24,07,46,9.70
2019,05,24,07,47,9.70
2019,05,24,07,48,9.70
2019,05,24,07,49,9.80
2019,05,24,07,50,9.80
2019,05,24,07,51,9.80
2019,05,24,07,52,9.90
2019,05,24,07,53,9.90
2019,05,24,07,54,9.90
2019,05,24,07,55,9.90
2019,05,24,07,56,10.00
2019,05,24,07,57,10.00
2019,05,24,07,58,10.00
2019,05,24,07,59,10.10
2019,05,24,08,00,10.10
2019,05,24,08,01,10.10
2019,05,24,08,02,10.10
2019,05,24,08,03,10.10
2019,05,24,08,04,10.20
2019,05,24,08,05,10.20
2019,05,24,08,06,10.20
2019,05,24,08,07,10.20
2019,05,24,08,08,10.20
2019,05,24,08,09,10.30
2019,05,24,08,10,10.30
2019,05,24,08,11,10.40
2019,05,24,08,12,10.40
2019,05,24,08,13,10.50
2019,05,24,08,14,10.60
2019,05,24,08,15,10.60
2019,05,24,08,16,10.70
2019,05,24,08,17,10.80
2019,05,24,08,18,10.80
2019,05,24,08,19,10.80
2019,05,24,08,20,10.90
2019,05,24,08,21,10.90
2019,05,24,08,22,10.90
2019,05,24,08,23,10.90
2019,05,24,08,24,10.90
2019,05,24,08,25,11.00
2019,05,24,08,26,11.00
2019,05,24,08,27,11.00
2019,05,24,08,28,11.00
2019,05,24,08,29,11.00
2019,05,24,08,30,11.00
2019,05,24,08,31,11.10
2019,05,24,08,32,11.10
2019,05,24,08,33,11.10
2019,05,24,08,34,11.20
2019,05,24,08,35,11.20
2019,05,24,08,36,11.20
2019,05,24,08,37,11.20
2019,05,24,08,38,11.30
2019,05,24,08,39,11.30
2019,05,24,08,40,11.30
2019,05,24,08,41,11.30
2019,05,24,08,42,11.40
2019,05,24,08,43,11.50
2019,05,24,08,44,11.50
2019,05,24,08,45,11.60
2019,05,24,08,46,11.60
2019,05,24,08,47,11.60
2019,05,24,08,48,11.70
2019,05,24,08,49,11.70
2019,05,24,08,50,11.70
2019,05,24,08,51,11.70
2019,05,24,08,52,11.80
2019,05,24,08,53,11.80
2019,05,24,08,54,11.90
2019,05,24,08,55,11.90
2019,05,24,08,56,12.00
2019,05,24,08,57,12.00
2019,05,24,08,58,12.10
2019,05,24,08,59,12.20
2019,05,24,09,00,12.20
2019,05,24,09,01,12.30
2019,05,24,09,02,12.30
2019,05,24,09,03,12.40
2019,05,24,09,04,12.40
2019,05,24,09,05,12.40
2019,05,24,09,06,12.50
2019,05,24,09,07,12.50
2019,05,24,09,08,12.60
2019,05,24,09,09,12.60
2019,05,24,09,10,12.70
2019,05,24,09,11,12.80
2019,05,24,09,12,12.80
2019,05,24,09,13,12.80
2019,05,24,09,14,12.90
2019,05,24,09,15,12.90
2019,05,24,09,16,13.00
2019,05,24,09,17,13.00
2019,05,24,09,18,13.10
2019,05,24,09,19,13.10
2019,05,24,09,20,13.20
2019,05,24,09,21,13.20
2019,05,24,09,22,13.20
2019,05,24,09,23,13.30
2019,05,24,09,24,13.30
2019,05,24,09,25,13.40
2019,05,24,09,26,13.40
2019,05,24,09,27,13.40
2019,05,24,09,28,13.40
2019,05,24,09,29,13.30
2019,05,24,09,30,13.30
2019,05,24,09,31,13.30
2019,05,24,09,32,13.30
2019,05,24,09,33,13.20
2019,05,24,09,34,13.20
2019,05,24,09,35,13.20
2019,05,24,09,36,13.10
2019,05,24,09,37,13.10
2019,05,24,09,38,13.00
2019,05,24,09,39,13.00
2019,05,24,09,40,13.00
2019,05,24,09,41,13.00
2019,05,24,09,42,13.00
2019,05,24,09,43,13.00
2019,05,24,09,44,13.00
2019,05,24,09,45,13.00
2019,05,24,09,46,13.00
2019,05,24,09,47,12.90
2019,05,24,09,48,12.90
2019,05,24,09,49,12.90
2019,05,24,09,50,12.90
2019,05,24,09,51,12.90
2019,05,24,09,52,12.90
2019,05,24,09,53,12.90
2019,05,24,09,54,12.90
2019,05,24,09,55,12.90
2019,05,24,09,56,12.90
2019,05,24,09,57,12.90
2019,05,24,09,58,12.90
2019,05,24,09,59,13.00
2019,05,24,10,00,13.00
2019,05,24,10,01,13.00
2019,05,24,10,02,13.00
2019,05,24,10,03,13.00
2019,05,24,10,04,13.10
2019,05,24,10,05,13.10
2019,05,24,10,06,13.10
2019,05,24,10,07,13.10
2019,05,24,10,08,13.20
2019,05,24,10,09,13.20
2019,05,24,10,10,13.20
2019,05,24,10,11,13.20
2019,05,24,10,12,13.20
2019,05,24,10,13,13.30
2019,05,24,10,14,13.30
2019,05,24,10,15,13.30
2019,05,24,10,16,13.30
2019,05,24,10,17,13.30
2019,05,24,10,18,13.30
2019,05,24,10,19,13.40
2019,05,24,10,20,13.40
2019,05,24,10,21,13.40
2019,05,24,10,22,13.50
2019,05,24,10,23,13.50
2019,05,24,10,24,13.60
2019,05,24,10,25,13.60
2019,05,24,10,26,13.60
2019,05,24,10,27,13.70
2019,05,24,10,28,13.70
2019,05,24,10,29,13.70
2019,05,24,10,30,13.70
2019,05,24,10,31,13.80
2019,05,24,10,32,13.80
2019,05,24,10,33,13.80
2019,05,24,10,34,13.80
2019,05,24,10,35,13.80
2019,05,24,10,36,13.80
2019,05,24,10,37,13.90
2019,05,24,10,38,13.90
2019,05,24,10,39,13.90
2019,05,24,10,40,13.90
2019,05,24,10,41,14.00
2019,05,24,10,42,14.00
2019,05,24,10,43,14.10
2019,05,24,10,44,14.10
2019,05,24,10,45,14.20
2019,05,24,10,46,14.20
2019,05,24,10,47,14.20
2019,05,24,10,48,14.30
2019,05,24,10,49,14.30
2019,05,24,10,50,14.30
2019,05,24,10,51,14.30
2019,05,24,10,52,14.30
2019,05,24,10,53,14.30
2019,05,24,10,54,14.30
2019,05,24,10,55,14.30
2019,05,24,10,56,14.30
2019,05,24,10,57,14.30
2019,05,24,10,58,14.30
2019,05,24,10,59,14.30
2019,05,24,11,00,14.30
2019,05,24,11,01,14.30
2019,05,24,11,02,14.30
2019,05,24,11,03,14.30
2019,05,24,11,04,14.30
2019,05,24,11,05,14.30
2019,05,24,11,06,14.30
2019,05,24,11,07,14.30
2019,05,24,11,08,14.30
2019,05,24,11,09,14.30
2019,05,24,11,10,14.30
2019,05,24,11,11,14.30
2019,05,24,11,12,14.40
2019,05,24,11,13,14.50
2019,05,24,11,14,14.50
2019,05,24,11,15,14.70
2019,05,24,11,16,14.80
2019,05,24,11,17,14.90
2019,05,24,11,18,15.00
2019,05,24,11,19,15.10
2019,05,24,11,20,15.20
2019,05,24,11,21,15.30
2019,05,24,11,22,15.40
2019,05,24,11,23,15.60
2019,05,24,11,24,15.70
2019,05,24,11,25,15.80
2019,05,24,11,26,15.90
2019,05,24,11,27,15.90
2019,05,24,11,28,16.00
2019,05,24,11,29,16.10
2019,05,24,11,30,16.20
2019,05,24,11,31,16.20
2019,05,24,11,32,16.30
2019,05,24,11,33,16.40
2019,05,24,11,34,16.50
2019,05,24,11,35,16.60
2019,05,24,11,36,16.60
2019,05,24,11,37,16.70
2019,05,24,11,38,16.70
2019,05,24,11,39,16.70
2019,05,24,11,40,16.70
2019,05,24,11,41,16.70
2019,05,24,11,42,16.80
2019,05,24,11,43,16.80
2019,05,24,11,44,16.80
2019,05,24,11,45,16.80
2019,05,24,11,46,16.90
2019,05,24,11,47,16.90
2019,05,24,11,48,17.00
2019,05,24,11,49,17.10
2019,05,24,11,50,17.10
2019,05,24,11,51,17.20
2019,05,24,11,52,17.20
2019,05,24,11,53,17.30
2019,05,24,11,54,17.40
2019,05,24,11,55,17.40
2019,05,24,11,56,17.50
2019,05,24,11,57,17.50
2019,05,24,11,58,17.50
2019,05,24,11,59,17.50
2019,05,24,12,00,17.50
2019,05,24,12,01,17.40
2019,05,24,12,02,17.40
2019,05,24,12,03,17.40
2019,05,24,12,04,17.30
2019,05,24,12,05,17.30
2019,05,24,12,06,17.30
2019,05,24,12,07,17.30
2019,05,24,12,08,17.20
2019,05,24,12,09,17.20
2019,05,24,12,10,17.20
2019,05,24,12,11,17.20
2019,05,24,12,12,17.20
2019,05,24,12,13,17.30
2019,05,24,12,14,17.30
2019,05,24,12,15,17.30
2019,05,24,12,16,17.30
2019,05,24,12,17,17.30
2019,05,24,12,18,17.40
2019,05,24,12,19,17.40
2019,05,24,12,20,17.40
2019,05,24,12,21,17.50
2019,05,24,12,22,17.50
2019,05,24,12,23,17.60
2019,05,24,12,24,17.70
2019,05,24,12,25,17.70
2019,05,24,12,26,17.80
2019,05,24,12,27,17.90
2019,05,24,12,28,18.10
2019,05,24,12,29,18.10
2019,05,24,12,30,18.20
2019,05,24,12,31,18.30
2019,05,24,12,32,18.30
2019,05,24,12,33,18.30
2019,05,24,12,34,18.40
2019,05,24,12,35,18.40
2019,05,24,12,36,18.40
2019,05,24,12,37,18.40
2019,05,24,12,38,18.40
2019,05,24,12,39,18.50
2019,05,24,12,40,18.50
2019,05,24,12,41,18.50
2019,05,24,12,42,18.60
2019,05,24,12,43,18.60
2019,05,24,12,44,18.70
2019,05,24,12,45,18.60
2019,05,24,12,46,18.60
2019,05,24,12,47,18.60
2019,05,24,12,48,18.50
2019,05,24,12,49,18.50
2019,05,24,12,50,18.50
2019,05,24,12,51,18.50
2019,05,24,12,52,18.40
2019,05,24,12,53,18.40
2019,05,24,12,54,18.40
2019,05,24,12,55,18.40
2019,05,24,12,56,18.40
2019,05,24,12,57,18.30
2019,05,24,12,58,18.30
2019,05,24,12,59,18.30
2019,05,24,13,00,18.30
2019,05,24,13,01,18.30
2019,05,24,13,02,18.20
2019,05,24,13,03,18.20
2019,05,24,13,04,18.20
2019,05,24,13,05,18.10
2019,05,24,13,06,18.10
2019,05,24,13,07,18.10
2019,05,24,13,08,18.10
2019,05,24,13,09,18.10
2019,05,24,13,10,18.10
2019,05,24,13,11,18.10
2019,05,24,13,12,18.10
2019,05,24,13,13,18.10
2019,05,24,13,14,18.10
2019,05,24,13,15,18.10
2019,05,24,13,16,18.10
2019,05,24,13,17,18.10
2019,05,24,13,18,18.10
2019,05,24,13,19,18.10
2019,05,24,13,20,18.10
2019,05,24,13,21,18.10
2019,05,24,13,22,18.20
2019,05,24,13,23,18.20
2019,05,24,13,24,18.20
2019,05,24,13,25,18.20
2019,05,24,13,26,18.20
2019,05,24,13,27,18.30
2019,05,24,13,28,18.30
2019,05,24,13,29,18.30
2019,05,24,13,30,18.40
2019,05,24,13,31,18.40
2019,05,24,13,32,18.40
2019,05,24,13,33,18.40
2019,05,24,13,34,18.50
2019,05,24,13,35,18.50
2019,05,24,13,36,18.50
2019,05,24,13,37,18.60
2019,05,24,13,38,18.60
2019,05,24,13,39,18.70
2019,05,24,13,40,18.80
2019,05,24,13,41,18.80
2019,05,24,13,42,18.90
2019,05,24,13,43,18.90
2019,05,24,13,44,19.00
2019,05,24,13,45,19.10
2019,05,24,13,46,19.10
2019,05,24,13,47,19.20
2019,05,24,13,48,19.20
2019,05,24,13,49,19.30
2019,05,24,13,50,19.30
2019,05,24,13,51,19.30
2019,05,24,13,52,19.30
2019,05,24,13,53,19.40
2019,05,24,13,54,19.40
2019,05,24,13,55,19.40
2019,05,24,13,56,19.30
2019,05,24,13,57,19.30
2019,05,24,13,58,19.30
2019,05,24,13,59,19.30
2019,05,24,14,00,19.40
2019,05,24,14,01,19.40
2019,05,24,14,02,19.50
2019,05,24,14,03,19.60
2019,05,24,14,04,19.60
2019,05,24,14,05,19.60
2019,05,24,14,06,19.60
2019,05,24,14,07,19.60
2019,05,24,14,08,19.60
2019,05,24,14,09,19.60
2019,05,24,14,10,19.60
2019,05,24,14,11,19.70
2019,05,24,14,12,19.70
2019,05,24,14,13,19.80
2019,05,24,14,14,19.70
2019,05,24,14,15,19.80
2019,05,24,14,16,19.70
2019,05,24,14,17,19.70
2019,05,24,14,18,19.80
2019,05,24,14,19,19.80
2019,05,24,14,20,19.80
2019,05,24,14,21,19.90
2019,05,24,14,22,19.90
2019,05,24,14,23,19.80
2019,05,24,14,24,19.80
2019,05,24,14,25,19.80
2019,05,24,14,26,19.80
2019,05,24,14,27,19.80
2019,05,24,14,28,19.80
2019,05,24,14,29,19.90
2019,05,24,14,30,19.90
2019,05,24,14,31,19.90
2019,05,24,14,32,20.00
2019,05,24,14,33,20.00
2019,05,24,14,34,20.10
2019,05,24,14,35,20.10
2019,05,24,14,36,20.10
2019,05,24,14,37,20.20
2019,05,24,14,38,20.20
2019,05,24,14,39,20.20
2019,05,24,14,40,20.20
2019,05,24,14,41,20.20
2019,05,24,14,42,20.30
2019,05,24,14,43,20.30
2019,05,24,14,44,20.40
2019,05,24,14,45,20.40
2019,05,24,14,46,20.40
2019,05,24,14,47,20.40
2019,05,24,14,48,20.50
2019,05,24,14,49,20.50
2019,05,24,14,50,20.50
2019,05,24,14,51,20.60
2019,05,24,14,52,20.60
2019,05,24,14,53,20.60
2019,05,24,14,54,20.60
2019,05,24,14,55,20.60
2019,05,24,14,56,20.60
2019,05,24,14,57,20.60
2019,05,24,14,58,20.60
2019,05,24,14,59,20.70
2019,05,24,15,00,20.70
2019,05,24,15,01,20.70
2019,05,24,15,02,20.70
2019,05,24,15,03,20.70
2019,05,24,15,04,20.70
2019,05,24,15,05,20.70
2019,05,24,15,06,20.80
2019,05,24,15,07,20.80
2019,05,24,15,08,20.80
2019,05,24,15,09,20.80
2019,05,24,15,10,20.80
2019,05,24,15,11,20.90
2019,05,24,15,12,20.90
2019,05,24,15,13,20.90
2019,05,24,15,14,20.90
2019,05,24,15,15,21.00
2019,05,24,15,16,21.10
2019,05,24,15,17,21.10
2019,05,24,15,18,21.10
2019,05,24,15,19,21.20
2019,05,24,15,20,21.20
2019,05,24,15,21,21.20
2019,05,24,15,22,21.30
2019,05,24,15,23,21.30
2019,05,24,15,24,21.40
2019,05,24,15,25,21.50
2019,05,24,15,26,21.50
2019,05,24,15,27,21.60
2019,05,24,15,28,21.70
2019,05,24,15,29,21.70
2019,05,24,15,30,21.70
2019,05,24,15,31,21.70
2019,05,24,15,32,21.70
2019,05,24,15,33,21.70
2019,05,24,15,34,21.80
2019,05,24,15,35,21.80
2019,05,24,15,36,21.80
2019,05,24,15,37,21.90
2019,05,24,15,38,21.90
2019,05,24,15,39,21.90
2019,05,24,15,40,21.90
2019,05,24,15,41,22.00
2019,05,24,15,42,22.00
2019,05,24,15,43,22.00
2019,05,24,15,44,22.00
2019,05,24,15,45,22.00
2019,05,24,15,46,21.90
2019,05,24,15,47,21.90
2019,05,24,15,48,21.90
2019,05,24,15,49,21.90
2019,05,24,15,50,21.90
2019,05,24,15,51,21.90
2019,05,24,15,52,21.90
2019,05,24,15,53,21.90
2019,05,24,15,54,21.90
2019,05,24,15,55,22.00
2019,05,24,15,56,22.00
2019,05,24,15,57,22.10
2019,05,24,15,58,22.10
2019,05,24,15,59,22.10
2019,05,24,16,00,22.10
2019,05,24,16,01,22.20
2019,05,24,16,02,22.20
2019,05,24,16,03,22.30
2019,05,24,16,04,22.30
2019,05,24,16,05,22.30
2019,05,24,16,06,22.30
2019,05,24,16,07,22.30
2019,05,24,16,08,22.30
2019,05,24,16,09,22.30
2019,05,24,16,10,22.30
2019,05,24,16,11,22.30
2019,05,24,16,12,22.30
2019,05,24,16,13,22.30
2019,05,24,16,14,22.30
2019,05,24,16,15,22.30
2019,05,24,16,16,22.30
2019,05,24,16,17,22.40
2019,05,24,16,18,22.40
2019,05,24,16,19,22.40
2019,05,24,16,20,22.40
2019,05,24,16,21,22.40
2019,05,24,16,22,22.50
2019,05,24,16,23,22.50
2019,05,24,16,24,22.50
2019,05,24,16,25,22.60
2019,05,24,16,26,22.60
2019,05,24,16,27,22.60
2019,05,24,16,28,22.60
2019,05,24,16,29,22.60
2019,05,24,16,30,22.60
2019,05,24,16,31,22.60
2019,05,24,16,32,22.60
2019,05,24,16,33,22.60
2019,05,24,16,34,22.70
2019,05,24,16,35,22.70
2019,05,24,16,36,22.60
2019,05,24,16,37,22.60
2019,05,24,16,38,22.50
2019,05,24,16,39,22.40
2019,05,24,16,40,22.30
2019,05,24,16,41,22.20
2019,05,24,16,42,22.20
2019,05,24,16,43,22.10
2019,05,24,16,44,22.10
2019,05,24,16,45,22.20
2019,05,24,16,46,22.20
2019,05,24,16,47,22.20
2019,05,24,16,48,22.20
2019,05,24,16,49,22.20
2019,05,24,16,50,22.30
2019,05,24,16,51,22.30
2019,05,24,16,52,22.30
2019,05,24,16,53,22.30
2019,05,24,16,54,22.30
2019,05,24,16,55,22.30
2019,05,24,16,56,22.30
2019,05,24,16,57,22.30
2019,05,24,16,58,22.40
2019,05,24,16,59,22.40
2019,05,24,17,00,22.40
2019,05,24,17,01,22.50
2019,05,24,17,02,22.50
2019,05,24,17,03,22.50
2019,05,24,17,04,22.60
2019,05,24,17,05,22.60
2019,05,24,17,06,22.60
2019,05,24,17,07,22.60
2019,05,24,17,08,22.60
2019,05,24,17,09,22.60
2019,05,24,17,10,22.60
2019,05,24,17,11,22.60
2019,05,24,17,12,22.60
2019,05,24,17,13,22.60
2019,05,24,17,14,22.60
2019,05,24,17,15,22.70
2019,05,24,17,16,22.60
2019,05,24,17,17,22.60
2019,05,24,17,18,22.60
2019,05,24,17,19,22.60
2019,05,24,17,20,22.60
2019,05,24,17,21,22.60
2019,05,24,17,22,22.60
2019,05,24,17,23,22.60
2019,05,24,17,24,22.60
2019,05,24,17,25,22.60